Theta_e
317 318 317 318 320 319 319 319 320 319 322 323 326 329 330 326 325 324 323 321 320 320
317 318 319 319 318 318 317 321 318 318 316 318 320 321 323 325 327 328 327 326 325 321
317 317 316 315 315 315 316 317 315 315 315 316 316 317 317 318 321 322 323 325 323 321
310 314 315 314 314 314 314 314 313 314 315 315 315 316 315 316 319 319 319 321 322 321
310 312 311 311 311 312 313 313 313 313 314 315 315 315 314 316 319 320 321 322 321 320
307 307 307 307 309 310 310 310 311 313 312 312 313 314 316 317 318 318 319 320 322 321
304 303 304 305 306 307 308 308 308 309 311 312 313 314 316 315 314 313 316 317 318 319
303 303 304 304 305 306 306 307 307 308 309 310 311 313 312 313 312 312 312 315 319 320
304 304 304 304 304 304 304 305 306 307 308 308 311 307 306 308 310 311 312 312 313 316
305 305 304 305 304 303 302 303 303 303 304 305 305 304 302 304 307 309 310 311 312 315
303 303 304 302 301 300 299 298 300 300 302 303 304 302 300 302 305 307 310 311 312 312
300 299 299 299 298 298 296 297 297 298 300 300 301 301 300 301 306 306 308 311 312 314
297 297 297 297 297 298 297 298 299 299 300 301 300 298 298 300 305 306 307 310 312 307
294 294 295 295 296 296 297 298 298 299 300 300 300 300 298 298 303 305 308 309 312 314
Wind_Speed
4 3 3 3 3 3 2 1 2 2 1 2 5 6 7 4 5 5 7 8 8 7
4 6 5 5 4 3 2 2 3 3 4 4 4 5 6 5 8 7 7 9 10 9
6 5 5 4 4 4 4 3 2 0 2 4 5 5 5 5 7 7 8 8 9 9
4 4 5 4 4 6 4 5 4 4 4 4 6 5 5 7 8 7 9 11 10 11
6 6 5 6 6 5 5 4 5 5 5 5 6 6 6 7 7 8 10 12 10 13
6 6 7 7 7 6 6 7 6 5 6 6 6 6 6 6 6 8 9 10 10 12
7 8 7 7 7 7 7 7 7 7 6 6 6 6 6 7 7 7 8 9 9 11
8 8 7 8 8 7 7 7 7 6 5 6 5 5 7 7 9 9 10 10 9 10
8 7 7 8 8 7 8 8 7 7 7 6 4 8 11 10 10 11 10 11 9 9
8 9 9 9 9 10 11 9 8 8 7 8 7 11 11 13 9 11 10 10 8 9
10 11 12 9 9 9 7 9 9 10 9 8 7 11 11 14 9 11 11 10 11 7
6 9 9 9 8 8 6 8 8 7 10 9 8 12 11 9 9 10 11 11 8 7
11 13 14 13 12 12 9 12 9 12 12 14 10 11 12 11 7 10 9 9 9 12
14 14 14 15 13 12 13 13 15 16 13 12 11 11 16 16 10 7 9 9 7 6
Wind_Direction
145 145 169 170 136 124 127 136 76 54 46 351 328 317 313 294 265 226 218 218 223 221
160 164 167 150 129 127 142 143 66 51 9 353 335 313 305 300 295 280 256 239 233 218
149 154 153 141 151 175 187 174 149 178 314 310 312 310 313 293 287 281 278 266 252 244
173 170 155 172 195 199 197 199 206 218 243 263 279 283 295 288 283 285 289 287 271 261
182 173 187 212 219 214 232 233 224 216 223 246 261 272 275 282 287 285 287 283 281 269
199 206 224 232 236 224 225 237 248 232 227 237 241 250 255 259 272 279 277 277 273 268
225 225 228 232 238 239 234 228 224 223 226 233 242 242 242 246 260 268 275 270 263 262
249 245 240 236 232 240 243 245 251 255 248 232 232 255 259 248 252 258 273 276 265 252
256 256 251 253 245 237 241 240 231 225 220 233 224 241 259 262 271 267 263 270 275 271
276 269 260 252 246 240 232 226 222 224 222 226 227 231 251 269 267 261 256 254 253 269
302 301 299 287 264 256 245 236 236 232 225 221 225 223 239 263 269 260 249 251 249 252
293 296 294 289 279 274 265 258 245 231 229 225 227 223 236 257 268 261 249 251 220 238
284 279 276 273 268 267 254 262 255 251 234 229 229 226 239 246 257 264 256 247 234 211
287 283 280 278 277 276 274 268 263 258 246 237 230 238 226 238 248 248 254 246 233 226